#timestamp,LO_Frequency,Hit,StdDev 
1626534015.1,286047000.7,N
1626534035.8,286047001.2,N
1626534055.7,286047001.1,N
1626534075.5,286047000.0,N
1626534095.4,286047000.5,N
1626534115.2,286046998.1,N
1626534135.0,286046998.2,N
1626534135.9,286046998.2,N
1626534155.8,286046998.5,N
1626534175.6,286047001.2,N
1626534195.5,286046998.2,N
1626534215.3,286046998.6,N
1626534235.1,286047000.6,N
1626534255.9,286046998.4,N
1626534275.7,286046999.3,N
1626534295.5,286046998.9,N
1626534315.4,286046996.7,N
1626534335.2,286046997.1,N
1626534355.1,286046997.2,N
1626534356.0,286046997.2,N
1626534375.8,286046997.2,N
1626534395.6,286046997.2,N
1626534415.5,286046997.0,N
1626534435.3,286046996.8,N
1626534455.2,286046997.9,N
1626534475.9,286046997.3,N
1626534495.7,286046999.1,N
1626534515.6,286046999.0,N
1626534535.4,286046997.1,N
1626534555.2,286046996.6,N
1626534575.1,286046999.2,N
1626534576.0,286046999.2,N
1626534595.8,286046996.8,N
1626534615.7,286046996.5,N
1626534635.5,286046998.4,N
1626534655.3,286046999.2,N
1626534675.2,286046998.9,N
1626534695.0,286046999.0,N
1626534695.9,286046999.0,N
1626534715.8,286046998.4,N
1626534735.6,286046999.0,N
1626534755.4,286047001.1,N
1626534775.3,286047000.7,N
1626534795.1,286046998.6,N
1626534815.8,286046998.4,N
1626534835.7,286046998.7,N
1626534855.5,286046999.4,N
1626534875.4,286046999.5,N
1626534895.2,286046999.6,N
1626534915.0,286046999.1,N
1626534915.9,286046999.1,N
1626534935.8,286046996.7,N
1626534955.6,286046998.9,N
1626534975.5,286047001.0,N
1626534995.3,286046998.5,N
1626535015.1,286046998.7,N
1626535035.9,286046999.5,N
1626535055.7,286046998.2,N
1626535075.5,286047000.7,N
1626535095.4,286047000.9,N
1626535115.2,286047000.4,N
1626535135.1,286047002.8,N
1626535136.0,286047002.8,N
1626535155.8,286047001.2,N
1626535175.6,286047000.9,N
1626535195.5,286046998.7,N
1626535215.3,286046996.5,N
1626535235.1,286046998.0,N
1626535255.9,286046997.7,N
1626535275.7,286046997.6,N
1626535295.6,286046994.9,Y
1626535315.4,286046996.7,P
1626535335.2,286046996.8,N
1626535355.1,286046997.3,N
1626535356.0,286046997.3,N
1626535375.8,286046999.2,N
1626535395.7,286046998.0,N
1626535415.5,286046995.5,Y
1626535435.3,286046997.0,P
1626535455.2,286046997.0,P
1626535475.0,286046996.5,P
1626535475.9,286046996.5,Y
1626535495.8,286046999.8,P
1626535515.6,286047000.5,N
1626535535.4,286046999.9,N
1626535555.3,286047001.0,N
1626535575.1,286047000.5,N
1626535595.8,286047001.0,N
1626535615.7,286047000.3,N
1626535635.5,286047001.8,N
1626535655.4,286047004.0,Y
1626535675.2,286047003.1,P
1626535695.0,286047002.9,N
1626535695.9,286047002.9,N
1626535715.8,286047005.2,Y
1626535735.6,286047004.2,P
1626535755.4,286047003.8,P
1626535775.3,286047003.5,P
1626535795.1,286047003.8,Y
1626535815.9,286047000.7,P
1626535835.7,286047000.7,N
1626535855.5,286047000.6,N
1626535875.4,286047001.2,N
1626535895.2,286046999.9,N
1626535915.1,286046999.9,N
1626535916.0,286046999.9,N
1626535935.8,286047000.0,N
1626535955.6,286047000.0,N
1626535975.5,286047002.8,N
1626535995.3,286047000.2,N
1626536015.2,286047002.7,N
1626536035.9,286047002.1,N
1626536055.7,286047002.1,N
1626536075.6,286047000.5,N
1626536095.4,286046999.7,N
1626536115.2,286047000.5,N
1626536135.1,286047000.0,N
1626536136.0,286047000.0,N
1626536155.8,286046998.5,N
1626536175.7,286046999.3,N
1626536195.5,286046996.5,N
1626536215.3,286046999.3,N
1626536235.2,286046999.2,N
1626536255.9,286046998.8,N
1626536275.7,286046999.5,N
1626536295.6,286046998.6,N
1626536315.4,286046998.3,N
1626536335.3,286046998.6,N
1626536355.1,286046998.2,N
1626536375.8,286046998.6,N
1626536395.7,286046998.3,N
1626536415.5,286046998.5,N
1626536435.4,286046998.3,N
1626536455.2,286047001.1,N
1626536475.0,286046998.5,N
1626536475.9,286046998.5,N
1626536495.8,286046998.3,N
1626536515.6,286046998.3,N
1626536535.5,286046998.1,N
1626536555.3,286047001.2,N
1626536575.1,286046998.7,N
1626536595.9,286046998.9,N
1626536615.7,286046998.8,N
1626536635.5,286046999.0,N
1626536655.4,286046999.0,N
1626536675.2,286046996.6,Y
1626536695.1,286046999.5,P
1626536696.0,286046999.5,N
1626536715.8,286046999.2,P
1626536735.7,286046999.1,Y
1626536755.5,286046998.2,P
1626536775.3,286046998.3,P
1626536795.2,286046998.4,P
1626536815.0,286046998.9,N
1626536815.9,286046998.9,N
1626536835.7,286046998.6,Y
1626536855.6,286047000.6,P
1626536875.4,286046999.7,N
1626536895.3,286047002.7,P
1626536915.1,286047002.6,N
1626536916.0,286047002.6,N
1626536935.8,286047002.6,N
1626536955.7,286047002.4,N
1626536975.5,286047002.7,N
1626536995.3,286047000.1,N
1626537015.2,286046999.7,N
1626537035.0,286047002.8,N
1626537035.9,286047002.8,N
1626537055.8,286047000.7,N
1626537075.6,286047000.7,N
1626537095.4,286047000.7,N
1626537115.3,286047000.2,N
1626537135.1,286047002.7,N
1626537155.8,286047000.6,N
1626537175.7,286046998.1,N
1626537195.5,286046998.5,N
1626537215.4,286047001.0,N
1626537235.2,286047000.5,N
1626537255.0,286046999.9,N
1626537255.9,286046999.9,N
1626537275.8,286047002.8,N
1626537295.6,286047002.4,N
1626537315.4,286047002.2,N
1626537335.3,286047000.1,N
1626537355.1,286047000.1,N
1626537375.9,286047000.1,N
1626537395.7,286047000.2,N
1626537415.5,286046999.7,N
1626537435.4,286047002.6,N
1626537455.2,286046999.7,N
1626537475.0,286047001.7,N
1626537475.9,286047001.7,N
1626537495.8,286047002.8,N
1626537515.6,286046999.8,N
1626537535.5,286046999.9,N
1626537555.3,286047001.1,N
1626537575.1,286047000.7,N
1626537595.9,286047001.2,N
